Overview Statistics Trail Chart Weather Telemetry Raw packets
 

This is the latest recevied weather packets stored in our database for station/object EA1IDU-12. If no packets are shown the sender has not sent any weather packets the latest 10 day(s).

<< 1 2 3 4 5 6 >>
Time Temp. Humidity Pressure Rain* Wind** Luminosity Snow
1788575118 20° C 34% 1032 hPa - - - -
1788574218 20° C 33% 1032 hPa - - - -
1788573318 20.56° C 33% 1032 hPa - - - -
1788572417 20° C 33% 1032.1 hPa - - - -
1788571517 20° C 32% 1032 hPa - - - -
1788570635 20° C 32% 1032.1 hPa - - - -
1788569717 20° C 31% 1032.3 hPa - - - -
1788568853 20° C 31% 1032.3 hPa - - - -
1788567917 20.56° C 30% 1032.3 hPa - - - -
1788567016 20.56° C 30% 1032.3 hPa - - - -
1788566116 20.56° C 30% 1032.5 hPa - - - -
1788565216 20.56° C 29% 1032.4 hPa - - - -
1788564316 20.56° C 29% 1032.6 hPa - - - -
1788563416 21.11° C 28% 1032.5 hPa - - - -
1788562515 20.56° C 28% 1032.6 hPa - - - -
1788561615 20.56° C 28% 1032.6 hPa - - - -
1788560714 21.11° C 27% 1032.5 hPa - - - -
1788559814 21.67° C 27% 1032.5 hPa - - - -
1788558914 22.78° C 25% 1032.6 hPa - - - -
1788558014 22.78° C 25% 1032.6 hPa - - - -
1788557114 22.78° C 25% 1032.7 hPa - - - -
1788556214 23.89° C 24% 1032.6 hPa - - - -
1788555313 23.89° C 22% 1032.4 hPa - - - -
1788554490 23.89° C 23% 1032.3 hPa - - - -
1788553513 24.44° C 22% 1032.1 hPa - - - -

* Rain since midnight (hover to see other rain measurements)
** Current wind speed in m/s (hover to see current wind gust speed)